SCP
2 2 1 1 1 0 0 0 0 0 0 0 0 0 0 0 0 0 0 0 0 0 0 0 0 0 0 0 0 0 0 0 0 0 0 0 0 0 0 0 0 0 0
2 2 1 1 1 1 0 0 0 0 0 0 0 0 0 0 0 0 0 0 0 0 0 0 0 0 0 0 0 0 0 0 0 0 0 0 0 0 0 0 0 0 0
2 2 1 1 1 1 0 0 0 0 0 0 0 0 0 0 0 0 0 0 0 0 0 0 0 0 0 0 0 0 0 0 0 0 0 0 0 0 0 0 0 0 0
2 2 1 1 1 1 0 0 0 0 0 0 0 0 0 0 0 0 0 0 0 0 0 0 0 0 0 0 0 0 0 0 0 0 0 0 0 0 0 0 0 0 0
2 2 2 1 1 0 0 0 0 0 0 0 0 0 0 0 0 0 0 0 0 0 0 0 0 0 0 0 0 0 0 0 0 0 0 0 0 0 0 0 0 0 0
2 2 1 1 1 0 0 0 0 0 0 0 0 0 0 0 0 0 0 0 0 0 0 0 0 0 0 0 0 0 0 0 0 0 0 0 0 0 0 0 0 0 0
2 1 1 1 1 1 0 0 0 0 0 0 0 0 0 0 0 0 0 0 0 0 0 0 0 0 0 0 0 0 0 0 0 0 0 0 0 0 0 0 0 0 0
2 1 1 1 1 1 1 0 0 0 0 0 0 0 0 0 0 0 0 0 0 0 0 0 0 0 0 0 0 0 0 0 0 0 0 0 0 0 0 0 0 0 0
2 1 1 1 1 1 1 0 0 0 0 0 0 0 0 0 0 0 0 0 0 0 0 0 0 0 0 0 0 0 0 0 0 0 0 0 0 0 0 0 0 0 0
1 1 1 1 1 1 1 0 0 0 0 0 0 0 0 0 0 0 0 0 0 0 0 0 0 0 0 0 0 0 0 0 0 0 0 0 0 0 0 0 0 0 0
1 1 1 1 1 1 1 0 0 0 0 0 0 0 0 0 0 0 0 0 0 0 0 0 0 0 0 0 0 0 0 0 0 0 0 0 0 0 0 0 0 0 0
1 1 1 1 1 1 1 0 0 0 0 0 0 0 0 0 0 0 0 0 0 0 0 0 0 0 0 0 0 0 0 0 0 0 0 0 0 0 0 0 0 0 0
1 1 1 1 1 1 1 0 0 0 0 0 0 0 0 0 0 0 0 0 0 0 0 0 0 0 0 0 0 0 0 0 0 0 0 0 0 0 0 0 0 0 0
1 1 1 1 1 1 1 0 0 0 0 0 0 0 0 0 0 0 0 0 0 0 0 0 0 0 0 0 0 0 0 0 0 0 0 0 0 0 0 0 0 0 0
1 1 1 1 1 1 0 0 0 0 0 0 0 0 0 0 0 0 0 0 0 0 0 0 0 0 0 0 0 0 0 0 0 0 0 0 0 0 0 0 0 0 0
1 1 1 1 0 0 0 0 0 0 0 0 0 0 0 0 0 0 0 0 0 0 0 0 0 0 0 0 0 0 0 0 0 0 0 0 0 0 0 0 0 0 0
0 0 0 0 0 0 0 0 0 0 0 0 0 0 0 0 0 0 0 0 0 0 0 0 0 0 0 0 0 0 0 0 0 0 0 0 0 0 0 0 0 0 0
0 0 0 0 0 0 0 0 0 0 0 0 0 0 0 0 0 0 0 0 0 0 0 0 0 0 0 0 0 0 0 0 0 0 0 0 0 0 0 0 0 0 0
0 0 0 0 0 0 0 0 0 0 0 0 0 0 0 0 0 0 0 0 0 0 0 0 0 0 0 0 0 0 0 0 0 0 0 0 0 0 0 0 0 0 0
0 0 0 0 0 0 0 0 0 0 0 0 0 0 0 0 0 0 0 0 0 0 0 0 0 0 0 0 0 0 0 0 0 0 0 0 0 0 0 0 0 0 0
0 0 0 0 0 0 0 0 0 0 0 0 0 0 0 0 0 0 0 0 0 0 0 0 0 0 0 0 0 0 0 0 0 0 0 0 0 0 0 0 0 0 0
0 0 0 0 0 0 0 0 0 0 0 0 0 0 0 0 0 0 0 0 0 0 0 0 0 0 0 0 0 0 0 0 0 0 0 0 0 0 0 0 0 0 0
0 0 0 0 0 0 0 0 0 0 0 0 0 0 0 0 0 0 0 0 0 0 0 0 0 0 0 0 0 0 0 0 0 0 0 0 0 0 0 0 0 0 0
0 0 0 0 0 0 0 0 0 0 0 0 0 0 0 0 0 0 0 0 0 0 0 0 0 0 0 0 0 0 0 0 0 0 0 0 0 0 0 0 0 0 0
0 0 0 0 0 0 0 0 0 0 0 0 0 0 0 0 0 0 0 0 0 0 0 0 0 0 0 0 0 0 0 0 0 0 0 0 0 0 0 0 0 0 0
0 0 0 0 0 0 0 0 0 0 0 0 0 0 0 0 0 0 0 0 0 0 0 0 0 0 0 0 0 0 0 0 0 0 0 0 0 0 0 0 0 0 0
Wind_Speed
6 5 5 4 4 4 3 3 2 2 2 2 2 2 2 2 2 3 2 2 3 3 3 3 3 2 2 2 2 2 1 1 1 3 2 3 4 4 5 4 3 3 4
6 6 5 5 4 4 3 2 3 2 2 2 2 3 2 2 2 2 2 2 2 2 2 2 2 2 3 2 2 2 1 0 1 2 3 3 3 4 4 4 4 4 3
6 6 6 5 5 4 4 3 3 3 2 2 3 2 2 2 2 1 2 1 1 1 1 1 2 1 2 2 1 1 1 1 0 1 3 2 3 3 4 4 4 3 4
7 7 7 6 6 5 4 4 4 3 3 3 2 2 2 1 1 1 2 2 2 2 1 1 1 1 1 1 1 1 1 2 1 1 2 3 3 3 3 3 4 3 4
7 7 7 6 5 5 4 4 4 3 3 3 2 1 1 1 1 1 1 1 1 2 2 2 2 2 2 1 1 1 0 1 1 1 2 2 3 3 3 3 3 4 4
8 8 7 6 6 5 5 4 4 3 2 2 2 2 1 0 0 1 1 1 0 1 1 2 2 3 4 4 4 2 1 1 1 1 1 2 3 3 2 2 2 3 4
8 7 7 7 6 6 5 5 4 4 3 2 2 2 1 2 2 1 1 1 0 1 1 1 2 3 3 2 4 4 4 5 3 2 2 3 3 3 2 3 2 3 4
8 8 7 7 7 6 5 5 4 3 3 3 3 3 2 3 3 2 1 1 0 1 2 2 1 2 2 2 2 3 3 4 4 2 3 4 4 4 4 3 4 3 4
8 8 8 8 8 7 6 6 4 4 3 3 3 3 3 4 5 4 2 1 0 2 2 2 2 2 5 4 1 2 4 5 5 6 7 7 9 9 6 2 2 2 3
9 9 8 8 9 8 8 6 4 4 4 4 3 3 4 4 6 6 3 1 1 2 2 2 4 4 6 4 2 2 3 5 5 5 6 7 6 7 8 4 3 3 3
7 6 6 7 8 8 7 5 4 4 3 3 4 4 4 6 7 8 6 3 3 2 2 3 4 7 7 7 5 3 6 6 4 3 4 4 4 4 4 4 4 4 4
6 6 6 6 7 6 6 5 4 5 4 4 3 4 4 5 6 7 9 7 6 4 4 4 4 8 9 8 6 7 10 7 2 2 3 4 4 4 4 4 4 5 5
6 6 6 5 5 5 6 6 4 4 4 4 4 5 5 4 5 9 10 9 8 5 4 7 8 9 8 6 8 10 7 3 2 3 4 5 5 5 4 4 4 4 5
6 5 4 5 4 4 4 5 5 5 5 5 5 5 5 4 4 4 4 5 6 5 4 6 8 8 6 6 7 5 3 3 4 4 5 5 4 4 4 4 3 3 3
5 4 4 4 4 4 4 5 6 6 7 7 7 6 5 6 8 9 6 5 4 5 3 2 2 2 3 3 4 4 3 3 4 4 4 4 5 5 5 3 3 3 3
4 3 3 3 3 3 3 3 5 6 8 10 10 8 7 9 10 10 11 11 10 8 4 3 4 4 5 5 5 5 4 4 5 5 5 5 5 5 5 4 3 4 4
3 3 2 3 3 3 3 3 3 4 5 7 9 10 10 10 10 10 11 10 10 7 4 5 5 6 6 5 5 5 5 5 5 4 5 5 5 5 5 5 4 4 4
2 2 2 2 3 3 3 4 4 4 4 4 6 9 10 10 10 10 9 5 4 4 4 6 6 6 6 6 6 6 5 5 4 5 5 5 5 5 5 5 5 5 5
1 1 1 1 1 2 2 3 3 4 4 4 4 5 8 8 8 8 6 4 5 5 6 6 6 6 6 6 6 6 5 5 5 5 5 6 5 5 5 6 5 7 6
0 0 0 1 0 1 1 2 3 3 4 4 4 5 3 2 3 4 4 5 5 6 6 6 6 6 6 6 6 5 5 5 6 6 6 6 5 5 6 7 6 5 5
0 1 1 0 1 1 2 2 3 3 3 4 4 5 5 3 5 5 5 5 6 7 7 6 6 6 6 6 6 6 7 6 6 6 6 6 5 5 5 5 5 5 5
0 1 1 1 2 2 2 2 2 3 4 5 4 4 6 4 4 4 5 5 6 6 6 6 6 6 6 6 6 6 6 7 6 6 6 5 5 5 5 5 5 5 5
0 1 1 2 2 3 3 2 2 3 4 4 4 4 3 4 4 5 6 6 5 5 5 5 5 5 5 5 6 6 6 7 6 6 6 6 6 6 6 6 7 6 6
0 1 1 2 2 2 2 3 3 3 3 4 3 3 3 4 4 5 5 5 4 5 4 4 5 7 8 6 5 5 6 7 6 5 7 7 7 7 6 6 7 7 7
1 1 2 2 2 2 2 3 3 3 3 3 3 3 4 4 4 4 4 4 5 5 5 5 4 5 7 9 7 6 8 10 10 7 6 6 8 8 7 7 7 7 7
1 1 2 2 2 2 2 3 3 3 3 3 3 4 4 4 4 5 4 4 4 5 5 5 6 7 8 7 8 9 10 11 11 11 7 6 7 7 7 6 8 8 8
Wind_Direction
170 164 157 161 155 146 143 150 146 124 112 111 108 94 80 63 57 63 46 44 47 24 18 33 12 0 14 7 20 35 44 127 224 296 298 314 338 340 338 340 342 341 336
173 164 164 160 153 149 149 155 143 128 115 117 107 97 89 77 66 69 52 49 50 25 9 23 1 12 14 5 22 18 358 311 180 297 313 324 326 326 331 337 342 344 330
169 165 162 163 162 162 162 155 143 134 117 106 101 101 100 97 86 78 84 66 37 13 4 8 333 16 359 342 357 359 339 358 31 287 304 309 313 327 337 333 337 332 329
169 167 171 178 175 171 165 155 148 142 131 125 123 126 125 119 106 86 81 57 21 359 349 343 313 306 247 271 330 328 350 12 1 345 316 318 318 319 341 338 335 332 328
168 174 183 180 171 166 165 161 152 147 145 144 132 119 109 124 138 116 96 75 34 3 354 345 327 334 330 316 313 285 6 18 351 343 323 329 322 330 329 323 326 319 315
173 182 179 170 168 170 170 163 156 156 149 139 142 145 149 209 143 127 113 105 56 5 333 327 329 351 355 356 350 338 322 293 264 264 282 287 286 284 292 308 314 333 317
178 180 177 172 172 177 173 164 168 173 165 163 177 170 197 233 222 168 108 129 147 246 255 287 326 339 345 345 337 337 331 327 302 245 244 261 269 266 271 291 287 275 269
180 183 182 175 177 177 172 177 182 175 175 183 197 199 208 240 241 243 250 120 172 255 248 233 253 298 305 318 331 334 317 311 303 290 243 255 259 257 242 251 258 274 275
186 188 188 181 178 178 183 190 188 180 190 200 202 202 211 244 250 250 249 162 231 274 267 249 247 262 292 307 320 305 308 306 301 303 296 292 294 296 289 287 294 301 298
197 194 189 184 182 187 192 191 187 187 201 203 213 216 215 232 248 249 240 185 222 262 278 272 273 274 288 295 271 260 282 286 296 308 312 310 304 300 295 260 228 240 265
192 185 185 187 190 191 189 186 185 189 191 206 222 236 232 235 246 247 239 207 207 230 251 264 270 282 288 288 281 251 264 280 275 280 292 297 298 293 284 264 230 215 230
174 178 186 189 194 189 182 188 185 183 191 212 226 250 253 248 242 246 244 237 224 215 235 245 260 276 281 284 282 281 288 298 286 290 292 289 286 284 279 273 258 241 235
165 180 188 190 194 185 185 190 189 190 200 216 220 238 253 250 250 248 247 247 241 230 236 248 260 271 278 281 280 287 291 283 272 275 275 274 267 267 273 278 277 268 265
170 183 184 184 193 195 194 193 194 201 209 217 223 234 247 251 246 242 241 248 248 248 249 260 269 277 273 270 281 285 271 253 251 251 260 266 273 277 272 263 264 272 276
171 182 184 187 190 199 207 209 208 214 208 211 219 220 226 244 246 234 226 231 229 232 232 245 263 275 278 277 276 273 268 269 266 255 258 268 273 273 270 259 251 254 254
171 186 190 190 196 202 212 245 248 239 240 234 233 229 234 240 250 243 239 241 240 235 221 234 245 248 252 256 260 265 263 259 257 255 257 259 264 267 270 263 251 248 254
175 189 193 195 200 206 210 217 254 278 267 255 248 245 244 249 248 246 244 243 243 234 227 239 244 247 248 249 249 249 253 255 255 254 256 258 259 262 261 259 255 251 252
160 180 187 204 210 214 220 225 228 235 257 269 262 253 252 252 252 251 248 244 255 239 232 242 247 249 248 248 248 248 251 255 254 254 254 256 255 257 261 259 253 248 252
148 179 194 205 218 227 234 238 240 240 244 256 272 275 263 260 260 259 245 230 238 242 241 244 247 248 248 248 249 247 246 248 250 251 255 256 255 253 258 256 251 251 250
179 276 155 179 228 264 257 247 248 247 249 253 257 261 266 266 264 262 245 239 241 245 246 248 249 247 247 246 248 248 249 249 251 251 254 255 256 253 256 255 247 244 246
180 304 333 302 251 250 254 253 254 251 253 256 259 262 259 249 249 252 250 245 243 246 247 247 248 247 245 245 246 247 247 251 250 250 252 253 253 256 259 253 248 247 249
211 237 248 250 260 262 263 260 262 262 262 264 270 273 270 260 254 254 254 254 252 249 248 246 246 245 243 243 244 245 248 251 251 249 251 252 253 256 259 258 251 248 247
332 299 293 283 276 283 286 277 268 265 269 272 273 275 271 265 266 263 261 261 259 257 254 248 251 256 256 251 245 242 246 249 248 245 248 254 257 256 255 256 254 251 250
320 289 287 291 294 288 284 286 282 279 277 278 282 284 282 279 281 280 277 277 275 271 267 260 256 259 261 261 255 248 245 248 248 244 244 252 257 257 254 256 255 250 251
321 306 298 293 290 287 287 287 285 285 286 284 283 286 289 290 290 290 290 290 290 287 284 279 272 273 272 269 265 262 261 260 258 255 249 250 254 253 253 256 258 256 251
332 318 307 303 298 296 294 293 291 292 291 291 290 291 290 289 288 288 289 289 290 288 286 283 278 276 277 274 270 269 271 272 269 264 258 253 252 254 254 255 257 257 253